Meteo Giornale » Osservazioni meteo Svizzera » Alpnach

ore: 20:50 - Osservazioni Meteo Alpnach
Lat. 46° 57' N Lon. 8° 17' E Alt. 444 metri s.l.m.

nuvoloso_piovaschi

20 °C

Pioggia

Temp. 24 Ore

13 °C

24 °C

Nord

3.7 Km/h

Dew point 14 °C

Umidità 68 %

Visibilità  10 Km

Il sole sorge alle ore 06:46

Il sole tramonta alle ore 20:07

Data e Ora Cielo e Fenomeni T °C DP °C Um. % Pres. hPa Vis. km Vento km/h
Oggi h: 20:50 nuvoloso_piovaschi Pioggia 20 14 68 1022 10 N 3.7
Oggi h: 20:20 molto_nuvoloso Molto Nuvoloso 21 14 64 1022 4 N 3.7
Oggi h: 18:50 nuvoloso Nuvoloso 23 14 56 1021 10 E/NE 11.1
Oggi h: 18:20 poco_nuvoloso Poco Nuvoloso 23 14 56 1021 10 E/NE 13
Oggi h: 17:50 poco_nuvoloso Poco Nuvoloso 23 12 49 1021 10 E/NE 13
Oggi h: 17:20 poco_nuvoloso Poco Nuvoloso 24 13 50 1021 10 NE 13
Oggi h: 16:50 poco_nuvoloso Poco Nuvoloso 24 12 47 1021 10 NE 14.8
Oggi h: 16:20 poco_nuvoloso Poco Nuvoloso 24 14 53 1021 10 E/NE 16.7
Oggi h: 15:50 poco_nuvoloso Poco Nuvoloso 24 13 50 1021 10 E/NE 16.7
Oggi h: 15:20 poco_nuvoloso Poco Nuvoloso 24 13 50 1022 10 E/NE 16.7
Oggi h: 14:50 nuvoloso Nuvoloso 23 13 53 1022 10 NE 18.5
Oggi h: 14:20 nuvoloso Nuvoloso 23 14 56 1022 10 E/NE 18.5
Oggi h: 13:50 nuvoloso Nuvoloso 23 14 56 1022 10 E/NE 20.3
Oggi h: 12:50 sereno Sereno 22 14 60 1023 10 E 18.5
Oggi h: 12:20 sereno Sereno 21 12 56 1023 10 E/NE 16.7
Oggi h: 11:50 poco_nuvoloso Poco Nuvoloso 21 12 56 1023 10 E 16.7
Oggi h: 11:20 sereno Sereno 21 13 60 1023 10 N 9.3
Oggi h: 10:50 sereno Sereno 20 13 64 1023 10 N 0
Oggi h: 10:20 sereno Sereno 19 11 59 1023 10 N 3.7
Oggi h: 09:50 sereno Sereno 18 10 59 1023 10 N 3.7
Oggi h: 09:20 sereno Sereno 17 12 72 1023 10 N 0
Oggi h: 08:50 sereno Sereno 15 11 76 1023 10 N 5.5
Oggi h: 08:20 sereno Sereno 13 11 87 1023 10 N 3.7
Oggi h: 07:50 sereno Sereno 14 10 76 1023 10 N 3.7
Oggi h: 07:20 sereno Sereno 13 10 81 1023 10 N 3.7
Oggi h: 06:50 sereno Sereno 13 11 87 1023 10 N 1.8
Oggi h: 06:20 sereno Sereno 13 11 87 1023 10 N 5.5
Oggi h: 05:50 sereno Sereno 14 11 82 1023 10 N 3.7
Oggi h: 05:20 sereno Sereno 14 11 82 1023 10 N 3.7
Oggi h: 04:50 foschia Foschia 14 11 82 1023 1 N 1.8
Oggi h: 04:20 poco_nuvoloso Poco Nuvoloso 15 12 82 1023 10 N 3.7
Oggi h: 03:50 molto_nuvoloso Molto Nuvoloso 16 12 77 1023 10 N 1.8
Oggi h: 03:20 molto_nuvoloso Molto Nuvoloso 16 12 77 1023 10 N 3.7
Oggi h: 02:50 molto_nuvoloso Molto Nuvoloso 16 12 77 1023 10 N 5.5
Oggi h: 02:20 molto_nuvoloso Molto Nuvoloso 18 10 59 1023 10 N 3.7
Oggi h: 01:50 molto_nuvoloso Molto Nuvoloso 18 10 59 1023 10 N 0
Oggi h: 01:20 molto_nuvoloso Molto Nuvoloso 18 11 63 1023 10 N 5.5
Oggi h: 00:50 molto_nuvoloso Molto Nuvoloso 19 11 59 1023 10 S 9.3
Oggi h: 00:20 molto_nuvoloso Molto Nuvoloso 18 12 67 1023 10 S 9.3
Ieri h: 23:50 molto_nuvoloso Molto Nuvoloso 19 12 63 1023 10 S/SO 7.4
Ieri h: 23:20 molto_nuvoloso Molto Nuvoloso 19 12 63 1022 10 S/SO 9.3
Ieri h: 22:50 molto_nuvoloso Molto Nuvoloso 19 13 68 1022 10 N 3.7
Ieri h: 22:20 coperto Coperto 20 13 64 1022 10 N 3.7
Ieri h: 21:50 molto_nuvoloso Molto Nuvoloso 20 12 59 1022 10 N 0